When you browse on this site, cookies collect data to enhance your experience and personalize the content and advertising you see.
Visit our Privacy Policy to learn more. By continuing to use the site, you agree to this use of cookies and data.
  • In Hungary
  • List of Countries
  • For 7 days
  • Water Temperature
  • Weather Map
  • News
  • Weather Widgets
  • user-avatar
    Login

    Hourly Weather Wojciechowo

    Today, 7 April, Tuesday

    Time Temperature Precipitation Wind Pressure Humidity
    00:00 +10°C° 0 mm 4 mps 765 mmHg 63%
    01:00 +10°C° 0 mm 4 mps 764 mmHg 64%
    02:00 +8°C° 0 mm 4 mps 765 mmHg 65%
    03:00 +9°C° 0 mm 3 mps 765 mmHg 67%
    04:00 +8°C° 0 mm 3 mps 765 mmHg 68%
    05:00 +9°C° 0 mm 3 mps 765 mmHg 67%
    06:00 +9°C° 0 mm 3 mps 765 mmHg 66%
    07:00 +10°C° 0 mm 3 mps 766 mmHg 63%
    08:00 +12°C° 0 mm 3 mps 766 mmHg 58%
    09:00 +16°C° 0 mm 3 mps 766 mmHg 54%
    10:00 +18°C° 0 mm 3 mps 766 mmHg 49%
    11:00 +19°C° 0 mm 3 mps 767 mmHg 48%
    12:00 +20°C° 0 mm 3 mps 767 mmHg 46%
    13:00 +21°C° 0 mm 3 mps 767 mmHg 45%
    14:00 +21°C° 0 mm 4 mps 767 mmHg 48%
    15:00 +21°C° 0 mm 4 mps 767 mmHg 51%
    16:00 +20°C° 0 mm 4 mps 767 mmHg 53%
    17:00 +18°C° 0 mm 4 mps 767 mmHg 57%
    18:00 +15°C° 0 mm 4 mps 768 mmHg 61%
    19:00 +13°C° 0 mm 4 mps 768 mmHg 65%
    20:00 +12°C° 0 mm 3 mps 768 mmHg 64%
    21:00 +11°C° 0 mm 3 mps 769 mmHg 63%
    22:00 +9°C° 0 mm 3 mps 769 mmHg 62%
    23:00 +9°C° 0 mm 3 mps 769 mmHg 64%

    Tomorrow, 8 April, Wednesday

    Time Temperature Precipitation Wind Pressure Humidity
    00:00 +8°C° 0 mm 2 mps 769 mmHg 66%
    01:00 +7°C° 0 mm 2 mps 769 mmHg 69%
    02:00 +7°C° 0 mm 2 mps 769 mmHg 71%
    03:00 +6°C° 0 mm 2 mps 769 mmHg 73%
    04:00 +7°C° 0 mm 1 mps 768 mmHg 75%
    05:00 +7°C° 0 mm 2 mps 768 mmHg 73%
    06:00 +7°C° 0 mm 2 mps 768 mmHg 71%
    07:00 +8°C° 0 mm 2 mps 768 mmHg 69%
    08:00 +10°C° 0 mm 2 mps 768 mmHg 65%
    09:00 +13°C° 0 mm 2 mps 767 mmHg 61%
    10:00 +15°C° 0 mm 2 mps 767 mmHg 57%
    11:00 +17°C° 0 mm 2 mps 766 mmHg 55%
    12:00 +18°C° 0 mm 2 mps 766 mmHg 53%
    13:00 +19°C° 0 mm 2 mps 765 mmHg 51%
    14:00 +20°C° 0 mm 2 mps 765 mmHg 50%
    15:00 +20°C° 0 mm 2 mps 764 mmHg 48%
    16:00 +20°C° 0 mm 2 mps 764 mmHg 47%
    17:00 +18°C° 0 mm 2 mps 763 mmHg 51%
    18:00 +17°C° 0 mm 2 mps 763 mmHg 56%
    19:00 +15°C° 0 mm 2 mps 763 mmHg 60%
    20:00 +14°C° 0 mm 2 mps 763 mmHg 59%
    21:00 +13°C° 0 mm 2 mps 763 mmHg 59%
    22:00 +12°C° 0 mm 2 mps 763 mmHg 58%
    23:00 +10°C° 0 mm 2 mps 762 mmHg 57%

    Day after tomorrow, 9 April, Thursday

    Time Temperature Precipitation Wind Pressure Humidity
    00:00 +10°C° 0 mm 2 mps 762 mmHg 57%
    01:00 +9°C° 0 mm 2 mps 761 mmHg 56%
    02:00 +9°C° 0 mm 2 mps 761 mmHg 59%
    03:00 +8°C° 0 mm 2 mps 761 mmHg 61%
    04:00 +7°C° 0 mm 2 mps 761 mmHg 64%
    05:00 +8°C° 0 mm 2 mps 761 mmHg 65%
    06:00 +9°C° 0 mm 2 mps 761 mmHg 65%
    07:00 +9°C° 0 mm 3 mps 760 mmHg 65%
    08:00 +11°C° 0 mm 3 mps 761 mmHg 63%
    09:00 +13°C° 0 mm 3 mps 761 mmHg 60%
    10:00 +15°C° 0 mm 4 mps 761 mmHg 58%
    11:00 +16°C° 0.3 mm 3 mps 761 mmHg 63%
    12:00 +14°C° 0.3 mm 3 mps 761 mmHg 68%
    13:00 +14°C° 0.3 mm 3 mps 761 mmHg 73%
    14:00 +14°C° 0 mm 4 mps 761 mmHg 69%
    15:00 +15°C° 0 mm 4 mps 761 mmHg 65%
    16:00 +15°C° 0 mm 5 mps 761 mmHg 60%
    17:00 +14°C° 0 mm 4 mps 761 mmHg 65%
    18:00 +13°C° 0 mm 4 mps 762 mmHg 69%
    19:00 +11°C° 0 mm 3 mps 762 mmHg 74%
    20:00 +10°C° 0 mm 3 mps 762 mmHg 70%
    21:00 +9°C° 0 mm 3 mps 763 mmHg 66%
    22:00 +7°C° 0 mm 3 mps 763 mmHg 63%
    23:00 +5°C° 0 mm 3 mps 764 mmHg 62%

    10 April, Friday

    Time Temperature Precipitation Wind Pressure Humidity
    00:00 +5°C° 0 mm 2 mps 764 mmHg 62%
    01:00 +5°C° 0 mm 2 mps 764 mmHg 61%
    02:00 +4°C° 0 mm 2 mps 764 mmHg 64%
    03:00 +4°C° 0 mm 2 mps 764 mmHg 66%
    04:00 +5°C° 0 mm 1 mps 765 mmHg 69%
    05:00 +5°C° 0 mm 1 mps 765 mmHg 68%
    06:00 +6°C° 0 mm 1 mps 765 mmHg 66%
    07:00 +7°C° 0 mm 1 mps 765 mmHg 65%
    08:00 +8°C° 0 mm 1 mps 765 mmHg 59%
    09:00 +10°C° 0 mm 1 mps 765 mmHg 52%
    10:00 +10°C° 0 mm 2 mps 766 mmHg 46%
    11:00 +12°C° 0 mm 2 mps 765 mmHg 43%
    12:00 +13°C° 0 mm 2 mps 765 mmHg 39%
    13:00 +14°C° 0 mm 1 mps 765 mmHg 36%
    14:00 +14°C° 0 mm 1 mps 764 mmHg 35%
    15:00 +15°C° 0 mm 1 mps 764 mmHg 35%
    16:00 +15°C° 0 mm 1 mps 763 mmHg 34%
    17:00 +13°C° 0 mm 1 mps 763 mmHg 39%
    18:00 +11°C° 0 mm 1 mps 763 mmHg 44%
    19:00 +10°C° 0 mm 1 mps 763 mmHg 49%
    20:00 +9°C° 0 mm 1 mps 763 mmHg 52%
    21:00 +8°C° 0 mm 1 mps 763 mmHg 54%
    22:00 +8°C° 0 mm 1 mps 763 mmHg 56%
    23:00 +7°C° 0 mm 1 mps 763 mmHg 58%

    11 April, Saturday

    Time Temperature Precipitation Wind Pressure Humidity
    00:00 +7°C° 0 mm 1 mps 763 mmHg 60%
    01:00 +6°C° 0 mm 1 mps 763 mmHg 62%
    02:00 +6°C° 0 mm 1 mps 763 mmHg 63%
    03:00 +6°C° 0 mm 1 mps 763 mmHg 64%
    04:00 +6°C° 0 mm 1 mps 763 mmHg 65%
    05:00 +7°C° 0 mm 1 mps 763 mmHg 63%
    06:00 +7°C° 0 mm 1 mps 763 mmHg 61%
    07:00 +8°C° 0 mm 1 mps 763 mmHg 60%
    08:00 +10°C° 0 mm 1 mps 763 mmHg 54%
    09:00 +12°C° 0 mm 1 mps 763 mmHg 49%
    10:00 +14°C° 0 mm 1 mps 762 mmHg 43%
    11:00 +15°C° 0 mm 1 mps 762 mmHg 41%
    12:00 +16°C° 0 mm 1 mps 762 mmHg 39%
    13:00 +17°C° 0 mm 2 mps 762 mmHg 36%
    14:00 +17°C° 0 mm 2 mps 761 mmHg 37%
    15:00 +17°C° 0 mm 2 mps 761 mmHg 37%
    16:00 +18°C° 0 mm 1 mps 760 mmHg 37%
    17:00 +15°C° 0 mm 1 mps 760 mmHg 43%
    18:00 +13°C° 0 mm 1 mps 760 mmHg 48%
    19:00 +12°C° 0 mm 1 mps 760 mmHg 53%
    20:00 +11°C° 0 mm 1 mps 760 mmHg 55%
    21:00 +10°C° 0 mm 1 mps 760 mmHg 57%
    22:00 +9°C° 0 mm 1 mps 760 mmHg 59%
    23:00 +8°C° 0 mm 2 mps 759 mmHg 60%

    12 April, Sunday

    Time Temperature Precipitation Wind Pressure Humidity
    00:00 +8°C° 0 mm 2 mps 759 mmHg 61%
    01:00 +8°C° 0 mm 2 mps 759 mmHg 63%
    02:00 +8°C° 0 mm 2 mps 758 mmHg 63%
    03:00 +8°C° 0 mm 2 mps 758 mmHg 63%
    04:00 +8°C° 0 mm 2 mps 758 mmHg 63%
    05:00 +9°C° 0 mm 2 mps 757 mmHg 63%
    06:00 +9°C° 0 mm 2 mps 757 mmHg 64%
    07:00 +10°C° 0 mm 2 mps 757 mmHg 64%
    08:00 +13°C° 0 mm 2 mps 757 mmHg 61%
    09:00 +14°C° 0 mm 3 mps 756 mmHg 58%
    10:00 +17°C° 0 mm 4 mps 756 mmHg 54%
    11:00 +18°C° 0.1 mm 4 mps 756 mmHg 53%
    12:00 +19°C° 0.1 mm 4 mps 756 mmHg 51%
    13:00 +20°C° 0.1 mm 5 mps 755 mmHg 49%
    14:00 +20°C° 0.2 mm 5 mps 755 mmHg 52%
    15:00 +20°C° 0.2 mm 4 mps 755 mmHg 55%
    16:00 +19°C° 0.2 mm 4 mps 754 mmHg 58%
    17:00 +17°C° 0 mm 4 mps 754 mmHg 64%
    18:00 +16°C° 0 mm 3 mps 754 mmHg 70%
    19:00 +14°C° 0 mm 2 mps 754 mmHg 75%
    20:00 +13°C° 0 mm 2 mps 755 mmHg 78%
    21:00 +12°C° 0 mm 2 mps 755 mmHg 81%
    22:00 +9°C° 0 mm 2 mps 755 mmHg 84%
    23:00 +9°C° 0 mm 2 mps 755 mmHg 86%
    Show more